Regional Weather Roundup
Issued by NWS

Home | Current Version | Previous Version | Graphics & Text | Print | Product List | Glossary On
Versions: 1 2 3 4 5 6 7 8 9 10 11 12 13 14 15 16 17 18 19 20 21 22 23 24 25 26 27 28 29 30 31 32 33 34 35 36 37 38 39 40 41 42 43 44 45 46 47 48 49 50
000
ASUS43 KBIS 310202
RWRND

NORTH DAKOTA REGIONAL WEATHER ROUNDUP
NATIONAL WEATHER SERVICE BISMARCK ND
900 PM CDT SAT JUL 30 2016

NOTE: "FAIR" INDICATES FEW OR NO CLOUDS BELOW 12,000 FEET WITH NO
SIGNIFICANT WEATHER AND/OR OBSTRUCTIONS TO VISIBILITY.


NDZ001>003-009>011-017-310300-
NORTHWEST NORTH DAKOTA

CITY           SKY/WX    TMP DP  RH WIND       PRES   REMARKS
WILLISTON      CLEAR     81  56  42 E10       29.75F
MINOT          CLEAR     78  62  57 NE5       29.78F
MINOT AFB      CLEAR     77  64  62 SE6       29.78S
$$

NDZ018>021-031>035-040>046-310300-
SOUTHWEST NORTH DAKOTA

CITY           SKY/WX    TMP DP  RH WIND       PRES   REMARKS
BISMARCK       CLEAR     79  64  60 SE18G25   29.79S
DICKINSON      CLEAR     77  60  55 NE8       29.77S
GARRISON         N/A     77  65  66 E7        29.79S
HETTINGER ARPT CLEAR     83  58  42 E12       29.79S
$$

NDZ004>008-012>016-024-026-027-054-310300-
NORTHEAST NORTH DAKOTA

CITY           SKY/WX    TMP DP  RH WIND       PRES   REMARKS
GRAND FORKS    PTCLDY    75  63  66 SE10      29.87S
GRND FRKS AFB  CLEAR     74  63  67 SE8       29.88S
DEVILS LAKE    CLEAR     74  63  68 SE13      29.85F
$$

NDZ022-023-025-028>030-036>039-047>053-310300-
SOUTHEAST NORTH DAKOTA

CITY           SKY/WX    TMP DP  RH WIND       PRES   REMARKS
FARGO          PTCLDY    75  58  55 SE9       29.90S
JAMESTOWN      CLOUDY    73  62  68 SE12      29.86S
$$





USA.gov is the U.S. government's official web portal to all federal, state and local government web resources and services.